Location: Nitra
(0.0000°N, 18.0833°E)
Time: 12:26:15
(UTC+02:00)

RS-44 - Visible Passes

Search period start: 05 June 2023 00:00
Search period end: 15 June 2023 00:00
Orbit: 1175 x 1510 km, 82.5° (Epoch: 04 June)

Date Brightness Start Highest point End Pass type
(mag) Time Alt. Az. Time Alt. Az. Time Alt. Az.
05 Jun ? 06:16:01 10° SE 06:22:19 23° E 06:28:45 10° NE visible
05 Jun ? 20:21:39 10° NW 20:27:54 30° W 20:33:59 10° SSW visible
06 Jun ? 20:47:50 10° WNW 20:51:31 14° W 20:55:11 10° WSW visible
07 Jun ? 19:14:45 10° N 19:22:13 88° W 19:29:24 10° S visible
08 Jun ? 05:36:30 10° ESE 05:40:25 14° E 05:44:22 10° ENE visible
08 Jun ? 19:38:51 10° NNW 19:45:52 48° W 19:52:42 10° SSW visible
09 Jun ? 05:57:09 10° SSE 06:04:06 27° E 06:11:09 10° NE visible
09 Jun ? 20:03:47 10° NW 20:09:29 25° W 20:15:07 10° SW visible
10 Jun ? 06:19:33 10° SSE 06:27:47 48° E 06:36:12 10° NNE visible
10 Jun ? 20:31:00 10° WNW 20:33:08 11° W 20:35:16 10° WSW visible
12 Jun ? 05:17:03 10° SE 05:22:12 17° E 05:27:22 10° NE visible
12 Jun ? 19:20:45 10° NNW 19:27:26 40° W 19:34:03 10° SSW visible
13 Jun ? 05:38:25 10° SSE 05:45:54 32° E 05:53:27 10° NE visible
13 Jun ? 19:46:01 10° NW 19:51:05 20° W 19:56:08 10° SW visible
14 Jun ? 06:01:05 10° SSE 06:09:36 56° E 06:18:13 10° NNE visible
